Location: Auckland
(36.8670°S, 174.7670°E)
Time: 06:25:32
(UTC+12:00)

Cosmos 2322 Rocket - Pass Details

Date: 24 January 2019
Orbit: 832 x 851 km, 71.0° (Epoch: 21 April)

Event Time Altitude Azimuth Distance (km) Brightness Sun altitude
Rises 22:54:01 0° 310° (NW) 3,391 5.4 -22.5°
Reaches altitude 10° 22:56:45 10° 299° (WNW) 2,468 4.7 -22.9°
Maximum altitude 23:01:40 30° 239° (WSW) 1,503 4.1 -23.5°
Drops below altitude 10° 23:06:39 10° 179° (S) 2,502 5.3 -24.1°
Sets 23:09:27 0° 168° (SSE) 3,447 5.9 -24.5°
